New Roads, LA

6:38 AM CST on December 03, 2016 (GMT -0600)
False River

Weather History for KHZR - May, 2014

Change the Weather History Date:

Friday, May 23, 2014

  Actual Average (KBTR) Record (KBTR)
Temperature  
Mean Temperature 76 °F 77 °F  
Max Temperature 86 °F 88 °F 94 °F (1918)
Min Temperature 66 °F 67 °F 49 °F (2002)
Degree Days  
Heating Degree Days 0 0  
Month to date heating degree days 0  
Since 1 July heating degree days 1553  
Cooling Degree Days 11 12  
Month to date cooling degree days 227  
Year to date cooling degree days 458  
Growing Degree Days 26 (Base 50)    
Moisture  
Dew Point 64 °F    
Average Humidity 69    
Maximum Humidity 97    
Minimum Humidity 43    
Precipitation  
Precipitation 0.00 in 0.16 in 2.94 in (1927)
Month to date precipitation 3.53  
Year to date precipitation 23.16  
Snow  
Snow 0.00 in - - ()
Month to date snowfall  
Since 1 July snowfall  
Snow Depth -    
Sea Level Pressure  
Sea Level Pressure 30.11 in    
Wind  
Wind Speed 2 mph (South)    
Max Wind Speed 9 mph    
Max Gust Speed -    
Visibility 9 miles    
Events      
T = Trace of Precipitation, MM = Missing Value Source: NWS Daily Summary

Daily Weather History Graph

Daily Weather History Graph

Search for Another Location

Airport or City:

Trip Planner

Search our weather history database for the weather conditions in past years. The results will help you decide how hot, cold, wet, or windy it might be!

Date:

Astronomy

May. 23, 2014 Rise Set
Actual Time 6:06 AM CDT 7:58 PM CDT
Civil Twilight 5:39 AM CDT 8:25 PM CDT
Nautical Twilight 5:07 AM CDT 8:58 PM CDT
Astronomical Twilight 4:33 AM CDT 9:32 PM CDT
Moon 2:39 AM CDT (5/23) 3:11 PM CDT (5/23)
Length of Visible Light 14h 45m
Length of Day
13h 52m
Waning Crescent, 27% of the Moon is Illuminated
May 23
Waning Crescent
May 28
New
Jun 5
First Quarter
Jun 12
Full
Jun 19
Last Quarter

Hourly Weather History & Observations

Time (CDT) Temp. Heat Index Dew Point Humidity Pressure Visibility Wind Dir Wind Speed Gust Speed Precip Events Conditions
12:15 AM 72.5 °F - 65.7 °F 79% 30.12 in 10.0 mi Calm Calm - N/A   Clear
12:35 AM 71.6 °F - 65.8 °F 82% 30.11 in 10.0 mi Calm Calm - N/A   Clear
12:55 AM 71.6 °F - 65.8 °F 82% 30.12 in 10.0 mi North - - N/A   Clear
1:15 AM 71.1 °F - 66.2 °F 85% 30.13 in 10.0 mi Calm Calm - N/A   Clear
1:35 AM 70.3 °F - 66.0 °F 86% 30.13 in 10.0 mi Calm Calm - N/A   Clear
1:55 AM 70.0 °F - 66.4 °F 88% 30.13 in 10.0 mi Calm Calm - N/A   Clear
2:15 AM 68.7 °F - 65.8 °F 90% 30.13 in 10.0 mi Calm Calm - N/A   Clear
2:35 AM 68.5 °F - 66.2 °F 92% 30.13 in 10.0 mi Calm Calm - N/A   Scattered Clouds
2:55 AM 67.6 °F - 65.7 °F 93% 30.13 in 10.0 mi Calm Calm - N/A   Mostly Cloudy
3:15 AM 68.0 °F - 66.2 °F 94% 30.13 in 10.0 mi Calm Calm - N/A   Scattered Clouds
3:35 AM 68.7 °F - 67.1 °F 95% 30.13 in 10.0 mi Calm Calm - N/A   Scattered Clouds
3:55 AM 68.4 °F - 66.6 °F 94% 30.13 in 10.0 mi Calm Calm - N/A   Scattered Clouds
4:15 AM 67.6 °F - 66.4 °F 96% 30.13 in 7.0 mi Calm Calm - N/A   Clear
4:35 AM 68.0 °F - 66.7 °F 96% 30.13 in 7.0 mi Calm Calm - N/A   Scattered Clouds
4:55 AM 67.3 °F - 66.2 °F 96% 30.13 in 10.0 mi Calm Calm - N/A   Scattered Clouds
5:15 AM 66.6 °F - 65.5 °F 96% 30.12 in 7.0 mi Calm Calm - N/A   Scattered Clouds
5:35 AM 66.9 °F - 65.7 °F 96% 30.12 in 7.0 mi Calm Calm - N/A   Clear
5:55 AM 66.7 °F - 65.7 °F 96% 30.12 in 7.0 mi SE 3.5 mph - N/A   Clear
6:15 AM 66.4 °F - 65.3 °F 96% 30.13 in 5.0 mi Calm Calm - N/A   Clear
6:35 AM 66.2 °F - 65.3 °F 97% 30.13 in 4.0 mi Calm Calm - N/A   Clear
6:55 AM 66.4 °F - 65.5 °F 97% 30.15 in 4.0 mi Calm Calm - N/A   Clear
7:15 AM 68.2 °F - 67.3 °F 97% 30.14 in 7.0 mi North - - N/A   Clear
7:35 AM 70.7 °F - 68.5 °F 93% 30.14 in 7.0 mi SSE 3.5 mph - N/A   Clear
7:55 AM 72.0 °F - 69.4 °F 92% 30.15 in 10.0 mi SE 4.6 mph - N/A   Clear
8:15 AM 72.9 °F - 69.1 °F 88% 30.15 in 10.0 mi Calm Calm - N/A   Clear
8:35 AM 73.8 °F - 68.9 °F 85% 30.16 in 10.0 mi Calm Calm - N/A   Clear
8:55 AM 74.8 °F - 69.3 °F 83% 30.16 in 10.0 mi Calm Calm - N/A   Clear
9:15 AM 76.3 °F - 68.7 °F 77% 30.16 in 10.0 mi Calm Calm - N/A   Scattered Clouds
9:35 AM 77.5 °F - 67.1 °F 70% 30.16 in 10.0 mi Calm Calm - N/A   Scattered Clouds
9:55 AM 78.3 °F - 64.9 °F 63% 30.16 in 10.0 mi South 4.6 mph - N/A   Mostly Cloudy
10:15 AM 79.0 °F - 64.4 °F 61% 30.16 in 5.0 mi SSE 4.6 mph - N/A   Haze
10:35 AM 79.7 °F - 63.9 °F 58% 30.16 in 10.0 mi Calm Calm - N/A   Clear
10:55 AM 80.6 °F 82.3 °F 64.4 °F 58% 30.15 in 10.0 mi SSE 3.5 mph - N/A   Scattered Clouds
11:35 AM 80.6 °F 82.0 °F 63.7 °F 56% 30.15 in 10.0 mi South 3.5 mph - N/A   Scattered Clouds
11:55 AM 81.7 °F 82.6 °F 62.1 °F 51% 30.15 in 10.0 mi SSE 6.9 mph - N/A   Scattered Clouds
12:15 PM 83.3 °F 84.3 °F 63.0 °F 50% 30.14 in 10.0 mi SSE 5.8 mph - N/A   Scattered Clouds
12:35 PM 82.9 °F 84.0 °F 63.1 °F 51% 30.13 in 10.0 mi SE 6.9 mph - N/A   Scattered Clouds
12:55 PM 83.7 °F 84.1 °F 61.5 °F 47% 30.12 in 10.0 mi SSE 4.6 mph - N/A   Scattered Clouds
1:15 PM 84.0 °F 84.4 °F 61.0 °F 46% 30.12 in 10.0 mi SSE 6.9 mph - N/A   Scattered Clouds
1:35 PM 84.0 °F 84.4 °F 61.2 °F 46% 30.11 in 10.0 mi South 3.5 mph - N/A   Clear
1:55 PM 84.4 °F 85.0 °F 61.9 °F 47% 30.10 in 10.0 mi SW 6.9 mph - N/A   Scattered Clouds
2:15 PM 84.2 °F 84.6 °F 61.2 °F 46% 30.10 in 10.0 mi WSW 3.5 mph - N/A   Mostly Cloudy
2:35 PM 85.5 °F 86.1 °F 62.6 °F 46% 30.10 in 10.0 mi SE 5.8 mph - N/A   Mostly Cloudy
2:55 PM 84.7 °F 85.0 °F 61.3 °F 45% 30.09 in 10.0 mi Calm Calm - N/A   Scattered Clouds
3:15 PM 85.1 °F 85.7 °F 62.1 °F 46% 30.08 in 10.0 mi SE 4.6 mph - N/A   Scattered Clouds
3:35 PM 86.0 °F 86.3 °F 61.7 °F 44% 30.07 in 10.0 mi Calm Calm - N/A   Scattered Clouds
3:55 PM 85.6 °F 85.9 °F 61.5 °F 44% 30.07 in 10.0 mi SSE 4.6 mph - N/A   Mostly Cloudy
4:15 PM 85.6 °F 85.9 °F 61.5 °F 44% 30.07 in 10.0 mi SSW 4.6 mph - N/A   Scattered Clouds
4:35 PM 85.6 °F 85.9 °F 61.7 °F 44% 30.06 in 10.0 mi ESE 6.9 mph - N/A   Mostly Cloudy
4:55 PM 85.6 °F 85.9 °F 61.3 °F 44% 30.06 in 10.0 mi SW 3.5 mph - N/A   Scattered Clouds
5:15 PM 85.5 °F 85.7 °F 61.5 °F 44% 30.05 in 10.0 mi North - - N/A   Clear
5:35 PM 85.8 °F 85.9 °F 61.0 °F 43% 30.05 in 10.0 mi SW 3.5 mph - N/A   Scattered Clouds
5:55 PM 84.4 °F 84.6 °F 61.2 °F 45% 30.04 in 10.0 mi SE 3.5 mph - N/A   Mostly Cloudy
6:15 PM 84.2 °F 84.6 °F 61.3 °F 46% 30.04 in 10.0 mi South 5.8 mph - N/A   Scattered Clouds
6:35 PM 84.2 °F 84.8 °F 62.2 °F 47% 30.03 in 10.0 mi North - - N/A   Clear
6:55 PM 83.3 °F 84.4 °F 63.7 °F 51% 30.03 in 10.0 mi South 4.6 mph - N/A   Clear
7:15 PM 82.4 °F 83.5 °F 63.0 °F 52% 30.04 in 10.0 mi South 9.2 mph - N/A   Clear
7:35 PM 81.5 °F 82.8 °F 63.1 °F 54% 30.04 in 10.0 mi South 4.6 mph - N/A   Clear
7:55 PM 80.6 °F 82.0 °F 63.7 °F 56% 30.05 in 10.0 mi South 3.5 mph - N/A   Clear
8:15 PM 79.3 °F - 63.0 °F 57% 30.05 in 10.0 mi South 5.8 mph - N/A   Clear
8:35 PM 78.6 °F - 62.2 °F 57% 30.06 in 10.0 mi SSW 5.8 mph - N/A   Clear
8:55 PM 77.2 °F - 62.6 °F 61% 30.06 in 10.0 mi South 4.6 mph - N/A   Clear
9:15 PM 76.6 °F - 62.1 °F 61% 30.07 in 10.0 mi SSW 3.5 mph - N/A   Clear
9:35 PM 75.7 °F - 61.7 °F 62% 30.07 in 10.0 mi South 4.6 mph - N/A   Clear
9:55 PM 75.4 °F - 61.7 °F 62% 30.08 in 10.0 mi SSW 6.9 mph - N/A   Clear
10:15 PM 74.5 °F - 62.2 °F 66% 30.09 in 10.0 mi SSW 4.6 mph - N/A   Clear
10:35 PM 72.9 °F - 62.8 °F 71% 30.10 in 10.0 mi SW 3.5 mph - N/A   Clear
11:15 PM 71.1 °F - 63.1 °F 76% 30.10 in 10.0 mi Calm Calm - N/A   Clear
11:35 PM 70.9 °F - 63.5 °F 77% 30.10 in 10.0 mi Calm Calm - N/A   Clear
11:55 PM 70.7 °F - 63.7 °F 78% 30.10 in 10.0 mi Calm Calm - N/A   Clear